Regional Weather Roundup
Issued by NWS

Home | Current Version | Previous Version | Text Only | Print | Product List | Glossary On
Versions: 1 2 3 4 5 6 7 8 9 10 11 12 13 14 15 16 17 18 19 20 21 22 23 24 25 26 27 28 29 30 31 32 33 34 35 36 37 38 39 40 41 42 43 44 45 46 47 48 49 50
000
ASUS42 KFFC 201203
RWRGA
WEATHER ROUNDUP FOR GEORGIA
NATIONAL WEATHER SERVICE PEACHTREE CITY GA
700 AM EST SAT DEC 20 2014

NOTE: "FAIR" INDICATES FEW OR NO CLOUDS BELOW 12,000 FEET WITH NO
SIGNIFICANT WEATHER AND/OR OBSTRUCTIONS TO VISIBILITY.

* = USE WITH CAUTION. THE STATIONS MARKED WITH AN ASTERISK MAY NOT
REPORT WEATHER SUCH AS PRECIPITATION, FOG, OR THUNDER AND ARE NOT
QUALITY CONTROLLED BY NWS.

THE REMARK "TC" DENOTES TEMPERATURE READING IN DEGREES CELSIUS.

GAZ001>058-201300-
NORTH GEORGIA

CITY           SKY/WX    TMP DP  RH WIND       PRES   REMARKS
ATLANTA        LGT RAIN  44  41  89 CALM      30.16R
6HR MIN TEMP:  42; 6HR MAX TEMP:  44; 6HR PCP:  0.17;

ATHENS         LGT RAIN  44  43  96 CALM      30.16S FOG
6HR MIN TEMP:  44; 6HR MAX TEMP:  47; 6HR PCP:  0.05;

CHAMBLEE       CLOUDY    42  41  96 NW3       30.17R FOG
6HR MIN TEMP:  40; 6HR MAX TEMP:  42; 6HR PCP:  0.09;

PEACHTREE CITY LGT RAIN  43  41  93 N3        30.16R FOG
6HR MIN TEMP:  42; 6HR MAX TEMP:  43; 6HR PCP:  0.22;

ROME           CLOUDY    40  37  89 CALM      30.18R
6HR MIN TEMP:  39; 6HR MAX TEMP:  40; 6HR PCP:  0.09;

WEST ATLANTA   LGT RAIN  42  39  89 N3        30.17R
6HR MIN TEMP:  41; 6HR MAX TEMP:  42; 6HR PCP:  0.10;

GAINESVILLE    LGT RAIN  44  41  89 NE5       30.17R
6HR MIN TEMP:  42; 6HR MAX TEMP:  44; 6HR PCP:  0.11;

CARTERSVILLE   CLOUDY    39  37  92 CALM      30.20R FOG
6HR MIN TEMP:  39; 6HR MAX TEMP:  40; 6HR PCP:  0.10;



CITY           SKY/WX    TMP DP  RH WIND       PRES   REMARKS
DALTON*        CLOUDY    37  34  87 CALM      30.18R
LAWRENCEVILLE* LGT RAIN  43  36  75 E3        30.15  FOG
MARIETTA       LGT RAIN  41  41 100 N3        30.17R
KENNESAW*      CLOUDY    41  28  60 CALM      30.19  FOG
$$

GAZ059>098-102>109-201300-
CENTRAL GEORGIA

CITY           SKY/WX    TMP DP  RH WIND       PRES   REMARKS
AUGUSTA-BUSH   LGT RAIN  48  46  93 CALM      30.17R
6HR MIN TEMP:  47; 6HR MAX TEMP:  49; 6HR PCP:  0.05;

AUGUSTA-DANIEL LGT RAIN  50  47  89 E6        30.17R
6HR MIN TEMP:  50; 6HR MAX TEMP:  53; 6HR PCP:  0.07;

COLUMBUS       LGT RAIN  45  44  97 CALM      30.15R
6HR MIN TEMP:  45; 6HR MAX TEMP:  46; 6HR PCP:  0.10;

MACON          LGT RAIN  46  45  96 NE3       30.17R FOG
6HR MIN TEMP:  45; 6HR MAX TEMP:  47; 6HR PCP:  0.08;

ROBINS AFB     LGT RAIN  46  45  94 N2        30.18R


CITY           SKY/WX    TMP DP  RH WIND       PRES   REMARKS
LAGRANGE*      CLOUDY    46  45  98 CALM      30.16R
SYLVANIA*      LGT RAIN  48  48  99 E6        30.14F
MILLEDGEVILLE* LGT RAIN  46  46 100 CALM      30.17R
$$

GAZ099>101-110>166-201300-
SOUTH GEORGIA

CITY           SKY/WX    TMP DP  RH WIND       PRES   REMARKS
SAVANNAH       CLOUDY    51  47  86 NE6       30.14S
6HR MIN TEMP:  51; 6HR MAX TEMP:  53; 6HR PCP:  0.01;

VALDOSTA       CLOUDY    50  47  89 NE5       30.12R
6HR MIN TEMP:  50; 6HR MAX TEMP:  51; 6HR PCP:  0.01;

ALMA           CLOUDY    50  48  93 CALM      30.14R
6HR MIN TEMP:  50; 6HR MAX TEMP:  51; 6HR PCP:  0.03;

ST SIMONS      MOCLDY    54  50  86 NE5       30.13R
6HR MIN TEMP:  53; 6HR MAX TEMP:  56; 6HR PCP:  0.01;

FT STEWART     CLOUDY    51  50  94 CALM      30.13R
ALBANY         CLOUDY    49  46  90 NE7       30.14S
HUNTER AFB     CLOUDY    52  51  97 NE7       30.12S
MOODY AFB      CLOUDY    50  48  92 N6        30.13R
BRUNSWICK      CLOUDY    54  50  87 CALM      30.13S


CITY           SKY/WX    TMP DP  RH WIND       PRES   REMARKS
BAINBRIDGE*    LGT RAIN  54  52  94 E6        30.12R
MOULTRIE*      CLOUDY    50  50 100 CALM      30.13R
VIDALIA*       CLOUDY    50  48  93 CALM      30.14R
WAYCROSS*      CLOUDY    54  53  97 CALM      30.14R
DOUGLAS*       LGT RAIN  52  48  87 CALM      30.15R
$$


USA.gov is the U.S. government's official web portal to all federal, state and local government web resources and services.